Погода в Сатти

Россия / Чеченская Республика     42°51′11″N   45°42′56″E
темп.,
°C
ветер,
м/с
пор.,
м/с
влажн.,
%
обл.,
%
осадки,
мм/ч
давл.,
гПа
погр.,
м
24 мая, вт
вт2400:00+6ссз23100100 7.6 1006316
03:00+5ссз1299100 11.8 1007309
06:00+5с12100100 2.4 1008373
09:00+4ссз1299100 5.3 1010379
12:00+4ссз1298100 2.4 1011321
15:00+5зсз1197100 4.2 1011381
18:00+4зюз1197100 2.5 1013281
21:00+4ююз1198100 3.5 1014171
25 мая, ср
ср2500:00+4ссз0198100 1.0 1015323
03:00+4ссз12100100 3.0 1015249
06:00+3с12100100 4.3 1018371
09:00+3с1299100 7.1 1019352
12:00+3ссз1198100 2.7 1021333
15:00+5ю1293100 3.8 1021244
18:00+7с117997 0.1 1020463
21:00+2ю32948 0.1 102531
26 мая, чт
чт2600:00+1ю33894 0.0 102540
03:000ю32855 0.0 102534
06:00+4ю12775 0.0 102381
09:00+9с226190 0.1 10211318
12:00+9с327181 0.3 1021920
15:00+9с327759 0.6 1021567
18:00+9с228242 0.1 1020291
21:00+4ю32902 0.1 102333
27 мая, пт
пт2700:00+3ю33845 0.0 102350
03:00+3ю348111 0.0 102353
06:00+6ю236628 0.0 102288
09:00+14с11414 0.0 1019998
12:00+16с32401 0.0 10181612
15:00+16с32498 0.0 10181435
18:00+13с22732 0.0 1019440
21:00+7ю22920 0.0 102222
28 мая, сб
сб2800:00+7ю33850 0.0 102142
03:00+6ю34840 0.0 102055
06:00+9ююв24720 0.0 1019131
09:00+17ссв12430 0.0 10151087
12:00+20с34410 0.0 10131603
15:00+19с426021 0.0 10131057
18:00+15с228119 0.1 1015340
21:00+10ю32850 0.1 101831